Starlink 31850

operational
NORAD ID: 59903 Int'l Des: 2024-100 Owner: SPXS Country: US Constellation: starlink
LEOCIRCULAR

关于 Starlink 31850

正在加载描述...

实时位置

正在加载3D地球...

即将过境

高度历史

Altitude vs Time

uPlot chart will show altitude changes over time

两行轨道根数

1 59903U 24100U 25308.75969036 .00000481 00000-0 27009-4 0 9991
2 59903 43.0025 110.6447 0001621 281.8122 78.2548 15.27579489 81997
Epoch: Nov 4, 2025 • Age: 11 hours

当前状态

高度 484.1 km
速度 7.63 km/s
星下点 29.63°N, 19.36°E
发射日期 May 28, 2024
运行时间 1.4 years
类型 internet

技术详情

分类 Payload
质量 730.00 kg
干质量 700.00 kg
总质量 730.00 kg
长度 0.30 m
直径 4.10 m
跨度 29.00 m
形状 Box + pan
制造商 SPXS
平台类型 Starlink V2M
阶段状态 In Orbit
所有者/国家 SPXS/US

大型星座

Loading constellations...